Date String (YYYY-MM-DD hh:mm:ss) UTC,Instrument flags,absolute air pressure of the measurement (hPa),sample flow rate (lpm),inlet stack bypass flow (lpm),air temperature of the measurement (°C),ambient temperature measured by the external sensor (°C),aerosol sample conditioner tube jacket temperature (°C),OPC LED temperature (°C),internal box temperature (°C),relative humidity of the measurement (%),span deviation,mass concentration of particles derived from Lorenz-Mie calculation of OPC scattering (μg/m³),mass concentration of particles derived from Lorenz-Mie calculation of OPC scattering (μg/m³),mass concentration of particles derived from Lorenz-Mie calculation of OPC scattering (μg/m³)
DateTimeUTC,F1_M11,P_M11,Q1_M11,Q2_M11,T1_M11,T2_M11,T3_M11,T4_M11,T5_M11,U1_M11,ZSPAN_M11,X0_M11,X2_M11,X1_M11
2023-10-05 00:00:00,SystemResetWarning,0831.0,5.00,000.00,028.4,026.5,000.0,036.9,030.1,15.5,0000.0,0010.09,0002.92,0001.73
2023-10-05 00:01:00,SystemResetWarning,0831.2,5.00,000.00,028.5,026.8,000.0,036.9,030.2,15.5,0000.0,0009.66,0002.99,0001.73
2023-10-05 00:02:00,SystemResetWarning,0831.1,5.00,000.00,028.5,027.0,000.0,036.9,030.2,15.5,0000.0,0009.03,0002.99,0001.74
2023-10-05 00:03:00,SystemResetWarning,0831.1,5.00,000.00,028.5,027.2,000.0,036.9,030.3,15.5,0000.0,0010.10,0003.00,0001.74
2023-10-05 00:04:00,SystemResetWarning,0831.1,5.00,000.00,028.6,027.4,000.0,036.9,030.4,15.4,0000.0,0009.84,0002.99,0001.75
2023-10-05 00:05:00,SystemResetWarning,0831.1,5.00,000.00,028.6,027.5,000.0,036.9,030.4,15.5,0000.0,0009.64,0002.99,0001.75
2023-10-05 00:06:00,SystemResetWarning,0831.1,5.00,000.00,028.7,027.6,000.0,037.0,030.5,15.3,0000.0,0010.11,0003.08,0001.77
2023-10-05 00:07:00,SystemResetWarning,0831.1,4.99,000.00,028.7,027.7,000.0,037.0,030.5,15.2,0000.0,0010.63,0003.14,0001.79
2023-10-05 00:08:00,SystemResetWarning,0831.2,4.98,000.00,028.8,027.5,000.0,037.0,030.6,15.2,0000.0,0011.16,0003.16,0001.80
2023-10-05 00:09:00,SystemResetWarning,0831.2,5.00,000.00,028.7,025.7,000.0,037.0,030.4,15.2,0000.0,0011.50,0003.19,0001.81
2023-10-05 00:10:00,SystemResetWarning,0831.2,5.02,000.00,028.7,024.9,000.0,036.9,030.3,15.2,0000.0,0011.46,0003.19,0001.82
2023-10-05 00:11:00,SystemResetWarning,0831.2,5.00,000.00,028.6,025.1,000.0,036.9,030.1,15.2,0000.0,0011.91,0003.17,0001.82
2023-10-05 00:12:00,SystemResetWarning,0831.2,5.00,000.00,028.5,025.4,000.0,036.9,030.0,15.1,0000.0,0012.21,0003.15,0001.83
2023-10-05 00:13:00,SystemResetWarning,0831.2,5.00,000.00,028.5,025.8,000.0,036.9,030.1,14.9,0000.0,0012.36,0003.13,0001.82
2023-10-05 00:14:00,SystemResetWarning,0831.2,4.99,000.00,028.5,026.2,000.0,037.0,030.1,15.1,0000.0,0013.02,0003.15,0001.82
2023-10-05 00:15:00,SystemResetWarning,0831.3,5.01,000.00,028.5,026.5,000.0,037.0,030.2,15.2,0000.0,0012.50,0003.15,0001.82
2023-10-05 00:16:00,SystemResetWarning,0831.3,4.99,000.00,028.5,026.8,000.0,037.0,030.3,15.2,0000.0,0013.28,0003.21,0001.81
2023-10-05 00:17:00,SystemResetWarning,0831.3,5.00,000.00,028.6,027.0,000.0,037.0,030.3,15.1,0000.0,0013.17,0003.18,0001.81
2023-10-05 00:18:00,SystemResetWarning,0831.2,5.00,000.00,028.6,027.2,000.0,037.0,030.4,14.9,0000.0,0013.43,0003.17,0001.81
2023-10-05 00:19:00,SystemResetWarning,0831.3,5.00,000.00,028.6,027.4,000.0,037.0,030.4,14.8,0000.0,0012.97,0003.13,0001.81
2023-10-05 00:20:00,SystemResetWarning,0831.3,5.00,000.00,028.7,027.5,000.0,037.0,030.5,14.7,0000.0,0013.37,0003.12,0001.81
2023-10-05 00:21:00,SystemResetWarning,0831.3,5.00,000.00,028.7,027.6,000.0,037.1,030.5,14.7,0000.0,0013.82,0003.17,0001.80
2023-10-05 00:22:00,SystemResetWarning,0831.3,4.98,000.00,028.8,027.2,000.0,037.1,030.6,14.7,0000.0,0014.54,0003.22,0001.81
2023-10-05 00:23:00,SystemResetWarning,0831.3,5.00,000.00,028.7,025.5,000.0,037.0,030.3,14.8,0000.0,0014.96,0003.24,0001.83
2023-10-05 00:24:00,SystemResetWarning,0831.4,5.01,000.00,028.6,024.9,000.0,036.9,030.2,15.0,0000.0,0014.96,0003.26,0001.84
2023-10-05 00:25:00,SystemResetWarning,0831.3,5.01,000.00,028.5,025.0,000.0,036.9,030.0,15.0,0000.0,0013.83,0003.24,0001.84
2023-10-05 00:26:00,SystemResetWarning,0831.4,4.99,000.00,028.5,025.4,000.0,036.9,030.0,15.0,0000.0,0014.26,0003.25,0001.85
2023-10-05 00:27:00,SystemResetWarning,0831.4,5.01,000.00,028.5,025.8,000.0,036.9,030.0,14.8,0000.0,0013.92,0003.20,0001.86
2023-10-05 00:28:00,SystemResetWarning,0831.5,5.00,000.00,028.5,026.1,000.0,037.0,030.1,14.8,0000.0,0015.07,0003.24,0001.88
2023-10-05 00:29:00,SystemResetWarning,0831.4,5.00,000.00,028.5,026.5,000.0,037.0,030.1,14.8,0000.0,0014.89,0003.29,0001.88
2023-10-05 00:30:00,SystemResetWarning,0831.4,5.00,000.00,028.5,026.7,000.0,037.0,030.2,14.8,0000.0,0014.97,0003.28,0001.89
2023-10-05 00:31:00,SystemResetWarning,0831.4,5.00,000.00,028.5,027.0,000.0,037.0,030.3,14.9,0000.0,0014.35,0003.25,0001.90
2023-10-05 00:32:00,SystemResetWarning,0831.5,5.00,000.00,028.6,027.2,000.0,037.0,030.3,14.9,0000.0,0012.88,0003.21,0001.91
2023-10-05 00:33:00,SystemResetWarning,0831.5,5.00,000.00,028.6,027.3,000.0,037.0,030.4,14.9,0000.0,0012.36,0003.20,0001.91
2023-10-05 00:34:00,SystemResetWarning,0831.6,5.00,000.00,028.6,027.5,000.0,037.0,030.4,14.9,0000.0,0011.68,0003.19,0001.90
2023-10-05 00:35:00,SystemResetWarning,0831.5,5.00,000.00,028.7,027.6,000.0,037.0,030.5,14.8,0000.0,0011.75,0003.19,0001.89
2023-10-05 00:36:00,SystemResetWarning,0831.6,5.00,000.00,028.7,027.7,000.0,037.0,030.5,14.9,0000.0,0011.57,0003.20,0001.89
2023-10-05 00:37:00,SystemResetWarning,0831.5,4.99,000.00,028.8,027.7,000.0,037.1,030.6,15.0,0000.0,0011.23,0003.21,0001.88
2023-10-05 00:38:00,SystemResetWarning,0831.6,4.98,000.00,028.8,026.2,000.0,037.0,030.5,14.6,0000.0,0011.61,0003.25,0001.88
2023-10-05 00:39:00,SystemResetWarning,0831.6,5.00,000.00,028.7,024.9,000.0,037.0,030.3,13.9,0000.0,0011.11,0003.23,0001.86
2023-10-05 00:40:00,SystemResetWarning,0831.6,5.00,000.00,028.6,024.9,000.0,037.0,030.1,14.5,0000.0,0011.34,0003.19,0001.86
2023-10-05 00:41:00,SystemResetWarning,0831.6,5.01,000.00,028.5,025.1,000.0,037.0,030.0,14.9,0000.0,0011.37,0003.23,0001.86
2023-10-05 00:42:00,SystemResetWarning,0831.6,5.00,000.00,028.5,025.5,000.0,037.0,030.0,14.9,0000.0,0011.35,0003.28,0001.86
2023-10-05 00:43:00,SystemResetWarning,0831.6,5.00,000.00,028.5,025.9,000.0,037.0,030.1,14.9,0000.0,0011.27,0003.25,0001.86
2023-10-05 00:44:00,SystemResetWarning,0831.7,5.00,000.00,028.5,026.2,000.0,037.0,030.1,14.9,0000.0,0010.70,0003.24,0001.86
2023-10-05 00:45:00,SystemResetWarning,0831.6,4.99,000.00,028.5,026.5,000.0,037.0,030.2,14.9,0000.0,0010.36,0003.24,0001.87
2023-10-05 00:46:00,SystemResetWarning,0831.6,4.99,000.00,028.5,026.8,000.0,037.0,030.2,14.3,0000.0,0010.01,0003.22,0001.87
2023-10-05 00:47:00,SystemResetWarning,0831.7,4.99,000.00,028.6,027.0,000.0,037.0,030.3,14.7,0000.0,0010.43,0003.19,0001.87
2023-10-05 00:48:00,SystemResetWarning,0831.7,5.01,000.00,028.6,027.2,000.0,037.0,030.3,14.1,0000.0,0010.67,0003.18,0001.88
2023-10-05 00:49:00,SystemResetWarning,0831.7,5.01,000.00,028.6,027.3,000.0,037.0,030.4,14.4,0000.0,0011.04,0003.14,0001.88
2023-10-05 00:50:00,SystemResetWarning,0832.0,5.00,000.00,028.7,027.5,000.0,037.0,030.4,14.7,0000.0,0011.88,0003.17,0001.90
2023-10-05 00:51:00,SystemResetWarning,0832.1,4.99,000.00,028.7,027.6,000.0,037.1,030.5,14.6,0000.0,0011.54,0003.18,0001.92
2023-10-05 00:52:00,SystemResetWarning,0832.3,4.99,000.00,028.7,027.7,000.0,037.1,030.5,14.8,0000.0,0011.44,0003.20,0001.92
2023-10-05 00:53:00,SystemResetWarning,0832.2,5.00,000.00,028.8,027.0,000.0,037.1,030.5,14.7,0000.0,0011.35,0003.17,0001.91
2023-10-05 00:54:00,SystemResetWarning,0832.2,5.00,000.00,028.7,025.2,000.0,037.0,030.4,14.3,0000.0,0011.24,0003.16,0001.92
2023-10-05 00:55:00,SystemResetWarning,0832.3,5.00,000.00,028.7,024.7,000.0,037.0,030.2,13.7,0000.0,0011.44,0003.15,0001.91
2023-10-05 00:56:00,SystemResetWarning,0832.3,5.01,000.00,028.6,024.9,000.0,037.0,030.0,13.5,0000.0,0012.59,0003.17,0001.92
2023-10-05 00:57:00,SystemResetWarning,0832.2,5.01,000.00,028.5,025.2,000.0,037.0,030.0,13.4,0000.0,0014.72,0003.21,0001.91
2023-10-05 00:58:00,SystemResetWarning,0832.0,5.00,000.00,028.5,025.6,000.0,037.0,030.0,13.6,0000.0,0015.24,0003.26,0001.90
2023-10-05 00:59:00,SystemResetWarning,0832.2,5.00,000.00,028.5,026.0,000.0,037.0,030.1,14.0,0000.0,0015.54,0003.30,0001.89
